Temp
54 52 52 49 49 49 48 48 47 41 44 47 47 49 50 51 54 54 54 54 58 60 61 61 60 59 58 57 56 55 54 54 53 53 54 54 54 54
56 53 51 48 50 49 47 48 47 47 44 49 47 45 47 50 49 50 52 51 55 58 58 58 58 57 56 56 54 54 53 53 52 53 53 53 53 53
54 53 53 53 49 49 46 47 46 46 44 45 44 44 43 45 45 46 47 48 48 55 57 57 56 55 55 54 53 53 52 52 51 51 51 51 52 52
53 52 52 52 51 48 48 47 46 45 45 44 43 42 42 43 44 44 46 48 45 51 55 55 55 54 54 53 52 52 51 50 50 49 49 49 50 50
54 53 53 49 51 47 49 48 48 47 44 43 43 41 41 41 41 41 42 42 45 49 54 54 54 54 53 53 52 50 50 49 48 47 47 47 48 48
53 53 52 51 51 49 48 49 47 46 43 42 41 41 41 41 41 39 39 40 41 46 49 50 52 52 52 50 49 49 48 48 48 47 47 47 46 47
50 51 51 50 50 50 49 47 46 46 43 44 41 40 39 38 39 40 40 37 37 40 41 42 44 44 45 48 47 48 48 48 48 47 47 46 46 46
49 49 50 47 49 51 51 51 50 47 45 43 43 41 41 41 40 39 37 36 36 40 40 41 41 40 40 40 44 47 48 47 47 47 46 46 45 45
50 48 47 48 48 49 50 50 50 50 50 49 46 45 44 43 41 39 38 39 38 37 39 38 37 38 38 41 45 46 47 47 46 46 46 44 44 44
48 48 48 47 47 47 47 46 46 47 48 48 48 47 48 45 46 44 42 38 35 36 37 35 34 35 36 37 44 45 46 46 46 45 44 43 42 42
47 47 47 47 48 48 46 44 45 45 48 48 48 48 47 46 45 40 36 36 33 33 35 35 33 34 34 35 35 41 43 44 44 42 41 41 41 41
45 45 47 47 47 48 47 46 43 43 43 42 42 44 45 45 45 44 39 37 33 31 34 34 32 32 30 32 32 31 32 40 40 38 39 39 39 31
43 42 44 46 47 47 47 44 43 42 43 39 38 38 38 39 38 38 39 39 34 33 35 34 31 30 30 29 30 30 29 29 29 30 34 35 36 36
41 42 43 45 45 45 45 45 45 41 37 35 35 34 33 33 33 33 34 34 34 35 36 34 29 29 26 25 25 27 25 26 26 26 27 31 34 35
41 43 44 44 44 44 44 44 41 36 34 33 32 31 32 31 31 31 31 31 30 31 33 32 30 28 24 18 20 21 23 25 26 24 25 25 26 26
41 41 43 43 43 41 41 38 35 35 34 33 31 31 31 31 30 31 29 29 27 27 30 30 29 26 18 20 19 17 21 15 22 23 24 25 26 27
39 38 36 35 35 35 33 34 34 34 32 31 30 30 30 30 29 29 28 26 24 23 23 25 27 25 23 20 12 17 14 14 20 21 22 21 24 26
38 34 33 34 34 33 32 32 32 33 31 31 31 30 30 29 27 27 26 24 22 21 20 21 20 16 18 21 24 12 14 12 15 17 19 15 18 21
35 33 33 33 33 33 32 32 31 31 32 31 31 30 30 28 28 26 25 23 21 20 19 17 10 11 6 11 18 28 13 15 17 13 15 14 14 23
33 33 33 33 33 33 32 32 31 31 31 30 30 29 29 29 26 25 23 21 21 17 13 14 9 8 9 10 7 16 28 15 14 11 15 19 23 30
33 33 33 33 33 33 33 32 31 31 31 30 29 27 27 26 25 25 24 25 22 17 16 17 15 22 6 9 9 11 18 28 25 13 11 8 12 16
32 33 33 33 33 33 32 32 31 32 30 30 29 28 27 27 25 24 24 24 21 19 15 15 14 12 7 9 6 5 11 17 23 28 30 25 11 9
31 32 32 32 32 32 32 31 31 31 30 29 28 27 26 25 25 25 25 23 19 17 16 13 13 12 10 11 12 2 4 5 11 15 18 30 32 33
MSLP
1021.70 1022.31 1022.83 1023.36 1023.71 1024.06 1024.44 1024.97 1025.65 1026.65 1026.82 1026.20 1026.31 1025.77 1025.71 1026.16 1026.48 1026.78 1026.97 1027.25 1027.64 1027.79 1027.70 1027.97 1028.25 1028.79 1029.31 1029.72 1030.23 1030.80 1031.05 1031.06 1031.07 1031.04 1030.91 1031.01 1031.01 1030.85
1020.98 1021.62 1022.19 1022.65 1023.22 1023.66 1024.04 1024.45 1024.83 1025.40 1026.10 1025.63 1025.52 1025.65 1025.80 1025.90 1026.10 1026.39 1026.57 1026.86 1027.09 1027.38 1027.53 1027.76 1027.93 1028.35 1028.95 1029.50 1029.99 1030.44 1030.82 1031.00 1030.94 1030.88 1030.71 1030.83 1030.71 1030.65
1020.26 1020.79 1021.23 1021.84 1022.53 1023.10 1023.61 1024.04 1024.53 1024.90 1025.44 1025.33 1025.39 1025.50 1025.76 1025.89 1026.02 1026.19 1026.40 1026.72 1026.95 1027.02 1027.19 1027.68 1027.95 1028.36 1028.84 1029.17 1029.63 1030.14 1030.53 1030.71 1030.77 1030.75 1030.61 1030.75 1030.67 1030.53
1019.17 1019.95 1020.41 1021.22 1021.82 1022.40 1022.90 1023.55 1023.89 1024.24 1024.75 1025.23 1025.38 1025.48 1025.64 1025.77 1025.82 1026.15 1026.37 1026.53 1026.74 1027.08 1027.04 1027.54 1027.91 1028.15 1028.59 1029.09 1029.48 1029.93 1030.33 1030.55 1030.66 1030.73 1030.70 1030.60 1030.59 1030.46
1018.47 1019.05 1019.61 1020.40 1021.02 1021.74 1022.16 1022.76 1022.97 1023.51 1024.03 1024.70 1025.10 1025.43 1025.62 1025.92 1026.12 1026.16 1026.20 1026.70 1026.34 1026.59 1026.68 1027.05 1027.81 1028.18 1028.40 1028.82 1029.25 1029.73 1030.19 1030.39 1030.53 1030.64 1030.54 1030.45 1030.34 1030.24
1018.03 1018.58 1019.11 1019.73 1020.15 1020.72 1021.34 1022.04 1022.38 1022.71 1023.43 1024.19 1024.72 1025.16 1025.40 1025.72 1025.89 1026.25 1026.47 1026.50 1026.46 1026.65 1026.60 1026.86 1027.39 1027.79 1028.10 1028.48 1028.89 1029.28 1029.72 1029.96 1030.22 1030.23 1030.19 1030.18 1030.12 1030.03
1017.81 1018.22 1018.71 1019.19 1019.55 1019.95 1020.69 1021.28 1021.83 1022.23 1022.82 1023.38 1024.12 1024.72 1025.01 1025.27 1025.29 1025.39 1025.98 1026.37 1026.55 1026.63 1026.75 1026.96 1027.46 1027.60 1027.90 1028.08 1028.38 1028.61 1029.09 1029.44 1029.68 1029.80 1029.83 1029.86 1029.82 1029.77
1017.35 1017.88 1018.15 1018.72 1019.19 1019.64 1019.92 1020.33 1020.43 1021.29 1021.77 1022.39 1022.82 1023.44 1023.68 1024.01 1024.31 1024.76 1025.49 1026.31 1026.76 1026.30 1026.47 1026.83 1026.99 1027.32 1027.74 1027.99 1027.97 1028.08 1028.42 1028.85 1029.09 1029.27 1029.45 1029.49 1029.48 1029.60
1016.93 1017.35 1017.83 1018.14 1018.74 1019.18 1019.41 1019.76 1020.13 1020.43 1020.44 1020.85 1021.42 1021.87 1022.36 1022.84 1023.37 1024.23 1024.65 1025.13 1025.37 1025.61 1026.17 1026.70 1026.97 1027.13 1027.39 1027.53 1027.52 1027.69 1028.06 1028.44 1028.68 1028.85 1028.93 1029.24 1029.18 1029.12
1016.63 1016.92 1017.30 1017.73 1018.22 1018.72 1019.17 1019.59 1019.79 1019.80 1020.11 1020.18 1020.32 1020.73 1021.12 1021.56 1022.03 1022.69 1023.50 1024.59 1025.40 1025.82 1025.95 1026.48 1026.77 1026.98 1027.30 1027.30 1027.29 1027.47 1027.78 1028.10 1028.37 1028.62 1028.88 1029.15 1029.21 1029.09
1016.35 1016.72 1017.18 1017.52 1017.81 1018.45 1018.74 1019.27 1019.53 1019.46 1019.35 1019.56 1019.72 1020.14 1020.50 1021.01 1021.52 1022.72 1023.46 1024.30 1025.14 1025.54 1025.85 1025.90 1026.60 1026.88 1027.19 1027.32 1027.46 1027.58 1027.61 1027.95 1028.22 1028.65 1028.89 1028.90 1028.89 1028.87
1016.51 1016.72 1017.00 1017.26 1017.60 1017.77 1018.21 1018.69 1019.04 1019.21 1019.44 1019.72 1020.06 1019.98 1020.32 1020.85 1021.15 1021.42 1022.40 1023.18 1024.26 1025.20 1025.27 1025.84 1026.52 1026.76 1027.42 1027.64 1027.78 1027.99 1028.09 1028.04 1028.37 1028.61 1028.58 1028.68 1028.54 1028.63
1016.47 1016.76 1016.97 1017.04 1017.26 1017.65 1017.96 1018.19 1018.57 1019.09 1019.43 1019.89 1020.29 1020.39 1020.82 1021.07 1021.58 1022.03 1022.36 1022.59 1023.45 1024.04 1024.39 1025.13 1026.20 1026.78 1027.32 1027.77 1027.98 1028.12 1028.26 1028.51 1028.74 1028.71 1028.53 1028.51 1028.43 1028.19
1016.87 1016.89 1016.92 1017.25 1017.53 1017.77 1018.11 1018.47 1018.77 1019.07 1019.58 1020.20 1020.58 1021.10 1021.50 1021.91 1022.34 1022.85 1023.11 1023.29 1023.49 1023.59 1024.30 1024.94 1025.93 1026.54 1027.27 1028.06 1028.26 1028.37 1028.53 1028.65 1028.81 1028.60 1028.49 1028.29 1028.06 1027.82
1017.15 1017.18 1017.02 1017.32 1017.65 1017.96 1018.35 1018.73 1019.17 1019.54 1019.88 1020.44 1020.89 1021.45 1021.85 1022.33 1022.83 1023.40 1023.85 1023.97 1024.18 1024.66 1025.09 1025.34 1025.71 1026.54 1027.08 1027.69 1028.23 1028.60 1028.63 1028.52 1028.47 1028.43 1028.30 1028.14 1028.00 1027.73
1017.29 1017.40 1017.54 1017.68 1017.95 1018.37 1018.78 1019.28 1019.65 1020.03 1020.28 1020.66 1021.13 1021.75 1022.30 1022.69 1023.05 1023.18 1024.02 1024.33 1025.04 1025.88 1025.99 1026.00 1026.11 1026.54 1027.31 1027.71 1028.13 1028.51 1028.47 1028.58 1028.41 1028.31 1028.17 1027.75 1027.42 1027.09
1017.91 1018.07 1018.21 1018.32 1018.53 1018.92 1019.33 1019.66 1020.09 1020.37 1020.64 1021.05 1021.59 1022.08 1022.55 1022.84 1023.24 1023.60 1024.05 1024.74 1025.33 1026.06 1026.61 1026.72 1026.73 1026.85 1027.20 1027.69 1028.26 1028.37 1028.46 1028.48 1028.42 1028.44 1028.20 1027.69 1026.83 1026.42
1018.10 1018.44 1018.53 1018.72 1018.91 1019.18 1019.71 1020.19 1020.41 1020.47 1020.69 1021.07 1021.45 1021.87 1022.36 1022.78 1023.28 1023.83 1024.30 1024.92 1025.61 1026.18 1026.59 1026.97 1027.25 1027.51 1027.83 1027.77 1027.73 1028.21 1028.45 1028.53 1028.45 1028.54 1028.42 1028.37 1027.09 1025.88
1018.28 1018.62 1018.62 1018.73 1018.89 1019.08 1019.28 1019.80 1020.34 1020.55 1020.72 1021.01 1021.29 1021.72 1022.14 1022.60 1023.05 1023.78 1024.32 1025.04 1025.78 1026.29 1026.76 1027.21 1027.76 1028.11 1028.72 1028.88 1028.14 1027.73 1028.35 1028.40 1028.37 1028.30 1028.06 1027.87 1027.31 1025.39
1018.73 1018.50 1018.55 1018.77 1019.03 1018.71 1018.88 1019.32 1019.87 1020.30 1020.63 1020.77 1021.14 1021.64 1022.08 1022.50 1022.99 1023.62 1024.28 1024.90 1025.63 1026.42 1027.08 1027.52 1027.88 1028.24 1028.82 1028.65 1028.53 1028.14 1027.62 1028.17 1028.30 1028.43 1027.77 1026.88 1025.95 1024.92
1018.98 1018.91 1018.72 1018.74 1018.66 1018.66 1018.74 1019.03 1019.38 1019.65 1020.08 1020.46 1020.94 1021.53 1022.01 1022.42 1022.89 1023.41 1024.05 1024.71 1025.48 1026.26 1027.05 1027.57 1027.70 1027.66 1028.90 1028.76 1029.03 1028.80 1027.81 1027.23 1027.23 1027.42 1026.95 1026.85 1026.19 1025.24
1019.43 1019.06 1018.75 1018.61 1018.54 1018.52 1018.51 1018.83 1019.22 1019.39 1019.66 1019.97 1020.29 1020.89 1021.45 1022.02 1022.66 1023.26 1023.77 1024.49 1025.33 1026.03 1026.88 1027.67 1028.22 1028.33 1028.72 1029.46 1029.63 1029.21 1028.24 1027.14 1026.47 1026.03 1025.60 1025.58 1025.92 1025.57
1019.76 1019.39 1018.96 1018.55 1018.39 1018.37 1018.60 1018.80 1018.89 1019.17 1019.54 1019.84 1020.14 1020.55 1021.09 1021.52 1022.19 1022.80 1023.56 1024.25 1025.21 1026.03 1026.76 1027.57 1028.20 1028.52 1028.98 1029.35 1029.49 1029.14 1028.44 1027.82 1026.86 1026.13 1025.30 1024.67 1024.68 1024.48
Wind_Speed
10 9 7 5 4 4 4 4 5 4 6 5 5 6 5 5 8 8 8 8 11 11 10 10 10 15 14 13 11 8 7 6 5 5 5 7 9 10
9 11 9 4 7 4 4 4 3 5 4 5 6 2 4 4 6 6 6 8 12 12 10 9 12 17 16 13 11 9 8 7 6 6 6 8 9 10
10 11 13 9 7 6 4 3 4 4 5 3 2 3 4 5 4 4 5 5 4 9 8 10 15 15 15 14 12 10 9 7 6 6 6 9 10 10
14 12 13 7 9 7 7 8 5 5 4 6 3 3 5 3 3 4 3 3 4 7 7 12 15 16 14 13 10 10 8 7 5 6 7 8 10 10
12 13 12 10 10 6 7 8 8 5 4 4 3 1 1 1 2 1 2 2 3 7 10 15 14 14 13 12 9 8 8 7 6 6 7 9 10 10
9 10 8 11 11 10 9 10 6 7 5 3 3 3 2 2 2 2 2 2 2 3 4 7 11 13 11 10 10 9 10 8 8 8 8 9 10 10
8 8 8 9 11 10 8 8 8 6 4 6 4 3 3 3 5 4 3 2 1 2 3 3 3 4 5 10 7 12 12 12 11 10 9 10 11 11
9 8 8 11 12 14 16 15 13 10 9 6 5 5 5 4 4 4 4 3 3 5 5 5 4 4 3 4 8 8 12 10 11 10 10 9 10 12
8 7 5 5 7 6 10 11 13 14 8 10 8 10 5 8 6 4 4 4 4 2 5 4 3 5 4 5 12 12 11 10 10 10 8 8 9 11
7 7 7 6 6 6 5 6 7 7 9 5 8 6 7 8 9 7 7 4 3 2 2 3 3 3 2 3 8 9 10 10 8 6 5 6 9 12
5 6 5 5 9 12 6 5 5 6 6 10 8 8 11 14 11 7 5 5 3 3 4 3 2 2 2 1 1 4 6 6 5 3 3 7 9 11
3 4 8 7 11 12 7 7 7 5 4 4 2 4 7 10 18 9 8 8 3 2 4 4 2 3 1 1 1 2 3 2 4 1 5 7 8 3
3 2 2 3 3 6 7 4 4 5 7 4 3 3 3 4 3 3 3 4 3 2 5 4 3 2 2 2 1 1 1 0 0 3 6 8 9 10
1 2 3 3 4 3 4 5 9 7 4 4 4 3 3 4 4 4 5 6 5 3 9 3 3 3 3 1 2 1 0 2 2 1 2 6 11 15
2 3 5 4 4 6 6 6 9 3 4 3 3 2 2 5 7 6 7 9 10 8 5 3 3 3 2 2 3 2 1 1 1 1 3 3 4 4
6 4 3 4 5 6 5 6 3 3 3 3 3 4 5 4 4 3 3 3 4 4 7 5 5 4 3 2 3 2 2 1 1 2 3 5 4 6
3 2 2 2 3 3 3 3 3 3 3 3 4 4 4 5 3 3 4 2 2 4 2 2 4 5 3 5 1 2 1 1 1 2 2 6 4 6
2 1 1 2 2 3 3 2 1 4 3 4 5 5 5 5 4 3 3 2 3 2 3 2 1 3 3 2 3 2 0 1 1 2 1 2 5 4
1 1 1 3 3 4 5 4 4 3 4 4 5 5 5 5 8 4 4 3 2 2 2 2 2 3 3 2 2 4 3 1 1 3 3 4 4 9
3 1 2 2 3 3 4 4 4 4 3 4 5 5 5 6 5 5 5 3 4 2 2 1 2 2 4 5 2 3 2 2 2 3 3 3 7 16
4 5 2 2 3 2 3 4 5 5 5 5 5 5 5 5 5 5 6 9 7 2 3 2 2 5 2 2 4 3 3 6 5 5 3 1 3 4
5 4 4 3 2 2 3 3 3 4 5 5 6 6 6 6 5 6 6 7 4 3 3 2 2 2 3 2 3 4 3 3 7 9 10 9 5 3
5 5 4 2 2 2 2 3 4 4 4 5 5 5 6 6 6 7 7 6 6 4 3 3 1 2 1 2 3 3 3 3 2 4 4 2 7 14
Wind_Direction
203 195 190 189 175 169 158 158 156 184 229 241 231 209 197 182 201 200 201 201 224 229 217 236 194 184 181 175 180 200 218 233 252 274 290 302 310 316
202 194 199 169 185 182 179 177 175 171 215 209 224 200 199 200 192 193 199 185 212 222 222 220 181 174 177 180 182 198 222 237 249 273 293 299 305 309
197 197 202 187 188 186 175 176 185 162 198 267 243 195 198 200 189 196 193 206 214 219 211 198 174 170 180 183 189 206 221 233 252 275 292 301 306 308
197 193 203 186 193 185 184 201 191 189 165 221 211 221 213 211 195 188 194 193 189 229 221 178 180 181 185 189 199 211 223 237 257 274 293 302 305 302
198 193 199 182 195 187 193 203 198 178 172 165 205 138 172 149 86 89 149 193 185 201 210 182 188 191 191 195 205 219 236 243 249 261 281 295 298 294
195 191 186 191 197 194 190 207 195 178 158 164 169 168 155 173 137 161 211 205 165 190 194 179 189 195 190 203 211 220 231 233 245 254 269 288 293 289
181 185 189 201 208 194 185 197 183 186 170 184 161 167 179 174 195 182 185 134 195 166 153 171 174 173 196 213 225 209 213 233 239 255 266 284 295 290
185 189 186 193 208 205 200 194 186 185 191 180 189 191 195 199 160 169 137 145 217 193 171 210 176 196 186 197 212 221 215 228 247 252 261 282 294 297
189 178 182 184 192 205 218 207 203 204 185 191 196 206 185 192 150 158 165 173 191 145 173 211 160 215 194 212 218 218 226 238 240 244 267 276 290 299
188 182 182 188 195 195 195 202 211 198 217 194 198 193 209 169 179 183 181 132 68 105 141 188 149 208 193 201 216 229 236 237 236 246 257 286 297 300
179 172 181 192 190 191 176 199 206 230 215 204 192 187 176 174 160 130 148 143 180 195 197 141 166 141 166 155 107 243 235 236 237 195 273 296 302 300
117 143 185 177 176 184 197 210 212 210 154 109 115 146 170 183 173 185 164 179 131 168 180 152 143 150 171 80 109 72 49 98 149 221 285 295 296 288
122 111 86 88 152 191 187 178 200 147 179 144 125 115 102 111 108 88 141 154 137 124 172 122 146 132 91 122 101 120 136 137 194 285 301 310 300 302
100 149 121 141 163 178 155 164 158 133 123 123 125 106 105 102 83 77 72 77 55 100 152 117 114 144 125 136 168 85 344 210 219 246 287 299 307 302
58 67 82 101 104 110 127 143 123 111 125 129 138 111 106 115 108 88 83 84 70 62 53 70 130 128 123 136 149 188 158 217 217 259 297 280 285 287
26 37 63 94 115 124 100 97 93 109 123 127 119 110 123 129 129 125 113 105 87 77 51 60 94 114 111 107 129 174 204 215 338 328 302 293 266 251
73 46 41 56 92 92 83 113 123 123 119 111 128 131 139 136 122 115 114 102 109 136 122 53 60 67 73 144 127 213 203 311 273 267 327 308 274 255
92 131 131 162 154 133 137 136 134 157 143 140 146 153 157 152 135 120 108 124 125 140 130 126 85 49 23 342 186 152 154 196 259 282 236 271 287 254
167 210 177 176 180 171 164 166 181 181 158 157 158 163 157 154 155 158 143 129 117 116 117 120 102 105 84 215 295 180 150 239 330 304 214 202 249 288
344 290 200 188 226 176 167 166 157 159 172 162 159 164 165 168 156 161 161 136 137 121 115 97 93 139 144 193 185 279 270 182 179 247 273 258 258 280
338 322 293 234 209 190 178 171 173 172 171 167 163 165 166 160 165 157 158 160 142 124 138 148 187 137 127 73 31 309 283 250 229 199 233 261 292 310
325 309 296 262 238 197 173 172 175 186 174 177 169 168 165 163 161 155 156 157 142 131 110 96 86 88 69 118 207 249 274 290 287 269 264 212 166 276
330 324 311 277 222 193 189 190 183 187 186 181 173 166 162 156 154 153 146 133 132 127 128 115 103 66 124 199 218 251 262 279 295 327 316 316 262 270